Total_Precipitation_Accumulation
0.07 0.08 0.07 0.08 0.06 0.03 0.01 0.00 0.00 0.00 0.00 0.00 0.00 0.00 0.00 0.00 0.00 0.00 0.00 0.00 0.01 0.02 0.05 0.15 0.22 0.26 0.33 0.35 0.30 0.26 0.25 0.26 0.29 0.33 0.36 0.37 0.35 0.33 0.32 0.33 0.36 0.41 0.45 0.48 0.50 0.48 0.45 0.45 0.47
0.08 0.10 0.10 0.09 0.05 0.01 0.00 0.00 0.00 0.00 0.00 0.00 0.00 0.00 0.00 0.00 0.00 0.00 0.00 0.00 0.00 0.01 0.04 0.09 0.20 0.25 0.33 0.35 0.34 0.30 0.28 0.28 0.29 0.31 0.34 0.37 0.40 0.39 0.35 0.35 0.41 0.46 0.52 0.57 0.54 0.48 0.48 0.50 0.48
0.13 0.14 0.11 0.09 0.03 0.00 0.00 0.00 0.00 0.00 0.00 0.00 0.00 0.00 0.00 0.00 0.00 0.00 0.00 0.00 0.00 0.01 0.03 0.10 0.20 0.26 0.32 0.36 0.39 0.39 0.37 0.35 0.34 0.33 0.33 0.35 0.38 0.38 0.38 0.38 0.43 0.48 0.50 0.53 0.54 0.51 0.51 0.48 0.43
0.17 0.21 0.15 0.09 0.02 0.00 0.00 0.00 0.00 0.00 0.00 0.00 0.00 0.00 0.00 0.00 0.00 0.00 0.00 0.00 0.01 0.01 0.04 0.11 0.22 0.29 0.34 0.37 0.44 0.45 0.45 0.45 0.45 0.43 0.41 0.41 0.41 0.40 0.39 0.40 0.40 0.40 0.41 0.45 0.47 0.48 0.50 0.49 0.45
0.21 0.25 0.18 0.08 0.01 0.00 0.00 0.00 0.00 0.00 0.00 0.00 0.00 0.00 0.00 0.00 0.00 0.00 0.00 0.01 0.01 0.02 0.05 0.12 0.25 0.34 0.36 0.39 0.44 0.47 0.50 0.54 0.55 0.57 0.56 0.53 0.50 0.47 0.46 0.45 0.41 0.35 0.35 0.39 0.43 0.44 0.47 0.49 0.47
0.25 0.28 0.18 0.06 0.01 0.00 0.00 0.01 0.01 0.01 0.01 0.00 0.01 0.00 0.00 0.00 0.00 0.00 0.01 0.02 0.02 0.03 0.07 0.15 0.32 0.39 0.39 0.41 0.46 0.50 0.53 0.59 0.61 0.62 0.63 0.60 0.55 0.53 0.55 0.53 0.47 0.39 0.33 0.33 0.35 0.37 0.42 0.43 0.42
0.23 0.24 0.13 0.05 0.02 0.01 0.01 0.01 0.01 0.01 0.01 0.01 0.01 0.01 0.00 0.01 0.01 0.01 0.02 0.03 0.05 0.06 0.10 0.19 0.33 0.42 0.46 0.48 0.50 0.52 0.56 0.59 0.62 0.64 0.67 0.64 0.57 0.56 0.56 0.56 0.49 0.44 0.40 0.36 0.33 0.32 0.34 0.34 0.37
0.23 0.27 0.15 0.07 0.05 0.03 0.01 0.02 0.01 0.01 0.01 0.01 0.01 0.01 0.01 0.01 0.02 0.03 0.05 0.07 0.08 0.10 0.15 0.21 0.33 0.43 0.47 0.51 0.54 0.53 0.55 0.58 0.60 0.64 0.66 0.62 0.56 0.54 0.53 0.49 0.45 0.43 0.44 0.42 0.35 0.33 0.31 0.28 0.27
0.33 0.35 0.16 0.06 0.05 0.04 0.02 0.03 0.02 0.02 0.01 0.01 0.01 0.01 0.01 0.01 0.04 0.07 0.09 0.14 0.17 0.18 0.22 0.26 0.36 0.46 0.51 0.54 0.56 0.57 0.58 0.59 0.59 0.60 0.60 0.61 0.57 0.55 0.53 0.47 0.42 0.42 0.42 0.40 0.37 0.34 0.31 0.26 0.21
0.41 0.36 0.14 0.05 0.04 0.05 0.04 0.04 0.04 0.04 0.03 0.01 0.01 0.01 0.01 0.03 0.07 0.08 0.09 0.15 0.20 0.21 0.25 0.31 0.39 0.47 0.56 0.58 0.61 0.63 0.58 0.56 0.54 0.50 0.50 0.53 0.54 0.52 0.49 0.48 0.47 0.46 0.45 0.42 0.42 0.39 0.33 0.27 0.22
0.31 0.24 0.11 0.06 0.06 0.07 0.08 0.07 0.06 0.07 0.06 0.03 0.02 0.03 0.04 0.06 0.09 0.11 0.11 0.12 0.18 0.21 0.27 0.33 0.42 0.51 0.58 0.59 0.60 0.60 0.55 0.53 0.53 0.51 0.53 0.58 0.60 0.56 0.55 0.53 0.51 0.49 0.48 0.51 0.53 0.52 0.43 0.38 0.36
0.24 0.16 0.11 0.09 0.08 0.10 0.12 0.11 0.10 0.10 0.06 0.03 0.03 0.04 0.06 0.08 0.10 0.12 0.13 0.14 0.19 0.26 0.29 0.34 0.44 0.55 0.60 0.61 0.61 0.58 0.53 0.50 0.50 0.49 0.53 0.60 0.61 0.57 0.53 0.53 0.50 0.49 0.49 0.49 0.52 0.54 0.49 0.45 0.39
0.24 0.16 0.12 0.12 0.12 0.12 0.13 0.12 0.11 0.11 0.06 0.04 0.04 0.04 0.07 0.08 0.10 0.13 0.15 0.16 0.21 0.25 0.30 0.35 0.42 0.53 0.61 0.66 0.66 0.62 0.55 0.48 0.46 0.45 0.46 0.47 0.51 0.52 0.48 0.43 0.40 0.40 0.41 0.42 0.42 0.42 0.44 0.45 0.41
0.26 0.21 0.16 0.14 0.15 0.15 0.14 0.13 0.12 0.09 0.07 0.07 0.07 0.07 0.06 0.08 0.08 0.12 0.17 0.19 0.20 0.24 0.29 0.36 0.42 0.51 0.62 0.65 0.68 0.67 0.63 0.55 0.51 0.47 0.43 0.42 0.44 0.44 0.43 0.39 0.34 0.31 0.31 0.31 0.31 0.29 0.29 0.31 0.34
0.26 0.28 0.24 0.16 0.15 0.16 0.18 0.16 0.09 0.06 0.09 0.11 0.10 0.09 0.07 0.07 0.08 0.09 0.14 0.19 0.20 0.24 0.32 0.37 0.45 0.53 0.62 0.67 0.70 0.72 0.72 0.70 0.62 0.53 0.48 0.43 0.43 0.44 0.44 0.42 0.37 0.32 0.32 0.33 0.31 0.27 0.25 0.25 0.26
0.39 0.42 0.35 0.19 0.15 0.19 0.29 0.21 0.07 0.05 0.09 0.12 0.12 0.10 0.09 0.07 0.08 0.08 0.11 0.18 0.23 0.27 0.33 0.40 0.45 0.55 0.61 0.70 0.75 0.75 0.78 0.75 0.70 0.63 0.58 0.50 0.46 0.45 0.47 0.46 0.42 0.40 0.39 0.39 0.39 0.36 0.32 0.29 0.27
0.56 0.52 0.31 0.18 0.17 0.23 0.31 0.22 0.08 0.09 0.10 0.12 0.13 0.12 0.10 0.09 0.09 0.09 0.11 0.15 0.23 0.29 0.35 0.42 0.46 0.52 0.62 0.72 0.83 0.86 0.85 0.82 0.76 0.70 0.66 0.60 0.55 0.48 0.47 0.49 0.47 0.45 0.46 0.45 0.44 0.41 0.39 0.37 0.35
0.52 0.38 0.25 0.17 0.17 0.24 0.26 0.20 0.12 0.12 0.13 0.12 0.12 0.12 0.11 0.10 0.09 0.10 0.13 0.16 0.21 0.30 0.37 0.44 0.48 0.55 0.67 0.81 0.89 0.98 0.96 0.87 0.82 0.78 0.74 0.71 0.66 0.58 0.52 0.48 0.50 0.51 0.52 0.51 0.47 0.46 0.46 0.44 0.40
0.40 0.34 0.27 0.17 0.16 0.24 0.22 0.16 0.12 0.12 0.13 0.11 0.10 0.11 0.10 0.10 0.09 0.11 0.16 0.20 0.24 0.32 0.41 0.46 0.50 0.59 0.72 0.83 0.89 0.88 0.94 0.89 0.80 0.74 0.77 0.78 0.75 0.69 0.63 0.57 0.51 0.54 0.55 0.53 0.48 0.45 0.46 0.45 0.44
0.44 0.43 0.29 0.20 0.19 0.26 0.22 0.13 0.09 0.09 0.11 0.10 0.10 0.10 0.09 0.09 0.10 0.11 0.16 0.24 0.27 0.32 0.40 0.48 0.50 0.54 0.62 0.65 0.73 0.79 0.80 0.82 0.81 0.75 0.74 0.80 0.80 0.74 0.70 0.66 0.58 0.51 0.52 0.52 0.51 0.47 0.45 0.44 0.39
0.42 0.40 0.29 0.24 0.22 0.26 0.26 0.19 0.08 0.07 0.07 0.08 0.08 0.09 0.08 0.09 0.10 0.10 0.13 0.23 0.28 0.30 0.38 0.44 0.51 0.51 0.59 0.65 0.78 0.86 0.92 0.92 0.89 0.84 0.79 0.77 0.79 0.77 0.71 0.66 0.63 0.57 0.52 0.49 0.49 0.48 0.47 0.46 0.41
0.40 0.27 0.25 0.27 0.38 0.42 0.33 0.34 0.10 0.07 0.08 0.09 0.09 0.09 0.09 0.10 0.11 0.10 0.12 0.19 0.25 0.28 0.37 0.44 0.52 0.59 0.60 0.69 0.79 0.79 0.79 0.79 0.72 0.72 0.73 0.78 0.80 0.79 0.76 0.71 0.67 0.63 0.58 0.53 0.48 0.48 0.47 0.49 0.50
0.32 0.25 0.30 0.33 0.43 0.48 0.31 0.36 0.13 0.06 0.11 0.13 0.14 0.13 0.11 0.11 0.12 0.11 0.11 0.17 0.23 0.29 0.37 0.46 0.50 0.63 0.66 0.67 0.74 0.74 0.70 0.68 0.69 0.74 0.78 0.79 0.82 0.84 0.79 0.75 0.72 0.65 0.59 0.56 0.54 0.50 0.51 0.52 0.52
0.32 0.42 0.53 0.56 0.73 0.82 0.30 0.26 0.15 0.11 0.15 0.15 0.13 0.14 0.16 0.15 0.15 0.15 0.14 0.17 0.23 0.30 0.38 0.44 0.51 0.62 0.71 0.70 0.75 0.75 0.71 0.69 0.73 0.77 0.85 0.86 0.87 0.91 0.88 0.78 0.76 0.70 0.60 0.55 0.57 0.56 0.53 0.53 0.52
0.56 0.88 1.31 1.37 1.35 0.78 0.15 0.16 0.16 0.12 0.11 0.13 0.11 0.12 0.18 0.20 0.19 0.19 0.16 0.19 0.22 0.29 0.38 0.43 0.47 0.60 0.71 0.72 0.73 0.74 0.70 0.68 0.70 0.74 0.80 0.84 0.87 0.90 0.90 0.85 0.79 0.75 0.67 0.57 0.58 0.62 0.60 0.57 0.58
0.60 0.76 1.04 1.04 0.72 0.28 0.09 0.11 0.11 0.08 0.05 0.06 0.06 0.07 0.10 0.14 0.20 0.21 0.18 0.20 0.23 0.28 0.35 0.42 0.44 0.53 0.68 0.70 0.70 0.72 0.70 0.66 0.66 0.70 0.73 0.79 0.76 0.76 0.83 0.88 0.87 0.79 0.73 0.68 0.64 0.64 0.62 0.63 0.65
0.56 0.57 0.50 0.69 0.50 0.28 0.15 0.10 0.09 0.06 0.04 0.04 0.06 0.08 0.09 0.09 0.14 0.21 0.19 0.22 0.26 0.31 0.33 0.41 0.46 0.52 0.65 0.72 0.69 0.71 0.72 0.70 0.63 0.65 0.69 0.76 0.75 0.69 0.73 0.83 0.91 0.92 0.86 0.79 0.75 0.73 0.66 0.65 0.68
0.50 0.57 0.69 0.99 0.82 0.43 0.18 0.12 0.14 0.11 0.07 0.05 0.07 0.10 0.10 0.10 0.13 0.17 0.17 0.22 0.28 0.32 0.32 0.37 0.47 0.52 0.60 0.68 0.70 0.72 0.75 0.73 0.67 0.66 0.67 0.68 0.73 0.74 0.72 0.74 0.81 0.87 0.92 0.92 0.87 0.83 0.77 0.74 0.72
0.52 0.71 0.96 1.00 0.73 0.56 0.32 0.20 0.19 0.15 0.10 0.08 0.07 0.10 0.12 0.11 0.13 0.16 0.16 0.21 0.27 0.32 0.31 0.33 0.41 0.52 0.60 0.64 0.66 0.72 0.80 0.78 0.76 0.73 0.68 0.65 0.67 0.75 0.77 0.77 0.83 0.88 0.89 0.90 0.96 0.95 0.90 0.87 0.83
0.48 0.61 0.78 1.00 0.76 0.43 0.37 0.25 0.18 0.14 0.11 0.09 0.08 0.10 0.12 0.12 0.14 0.14 0.16 0.19 0.24 0.27 0.31 0.34 0.38 0.46 0.57 0.66 0.68 0.70 0.79 0.83 0.81 0.85 0.84 0.74 0.67 0.69 0.77 0.81 0.83 0.91 0.96 0.95 0.98 1.01 1.02 1.06 1.02